Weather History for Glens Falls, NY

Change the Weather History Date:

Tuesday, February 19, 2013

  Actual Average Record
Temperature  
Mean Temperature 26 °F 22 °F  
Max Temperature 40 °F 34 °F 62 °F (1981)
Min Temperature 11 °F 11 °F -15 °F (1993)
Degree Days  
Heating Degree Days 39 43  
Month to date heating degree days 844 853  
Since 1 July heating degree days 4789 5249  
Cooling Degree Days 0 0  
Month to date cooling degree days 0 0  
Year to date cooling degree days 0 0  
Moisture  
Dew Point 23 °F    
Average Humidity 67    
Maximum Humidity 92    
Minimum Humidity 41    
Precipitation  
Precipitation 0.22 in 0.07 in 0.89 in (1960)
Month to date precipitation 0.42 1.39  
Year to date precipitation 1.70 4.25  
Sea Level Pressure  
Sea Level Pressure 29.80 in    
Wind  
Wind Speed 2 mph (SSW)    
Max Wind Speed 24 mph    
Max Gust Speed 32 mph    
Visibility 5 miles    
Events Fog , Rain , Snow    
T = Trace of Precipitation, MM = Missing Value Source: NWS Daily Summary

Daily Weather History Graph

Daily Weather History Graph

Search for Another Location

Airport:

Trip Planner

Search our weather history database for the weather conditions in past years. The results will help you decide how hot, cold, wet, or windy it might be!

Date:

Astronomy

Feb. 19, 2013 Rise Set
Actual Time 6:46 AM EST 5:30 PM EST
Civil Twilight 6:17 AM EST 5:59 PM EST
Nautical Twilight 5:44 AM EST 6:33 PM EST
Astronomical Twilight 5:11 AM EST 7:06 PM EST
Moon 11:55 AM EST (2/19) 2:21 AM EST (2/19)
Length of Visible Light 11h 42m
Length of Day
10h 44m
Waxing Gibbous, 67% of the Moon is Illuminated
Feb 19
Waxing Gibbous
Feb 25
Full
Mar 4
Last Quarter
Mar 11
New
Mar 19
First Quarter

Hourly Weather History & Observations

Time (EST) Temp. Windchill Dew Point Humidity Pressure Visibility Wind Dir Wind Speed Gust Speed Precip Events Conditions
12:53 AM 14.0 °F - 9.0 °F 80% 30.18 in 10.0 mi Calm Calm - N/A   Clear
1:53 AM 14.0 °F - 8.1 °F 77% 30.18 in 10.0 mi Calm Calm - N/A   Mostly Cloudy
2:53 AM 17.1 °F - 12.0 °F 81% 30.17 in 10.0 mi Calm Calm - N/A   Overcast
3:53 AM 16.0 °F - 8.1 °F 71% 30.14 in 10.0 mi Calm Calm - N/A   Clear
4:53 AM 14.0 °F - 9.0 °F 80% 30.11 in 10.0 mi Calm Calm - N/A   Clear
5:53 AM 12.0 °F - 8.1 °F 84% 30.09 in 10.0 mi Calm Calm - N/A   Clear
6:53 AM 10.9 °F - 8.1 °F 88% 30.07 in 10.0 mi Calm Calm - N/A   Clear
7:53 AM 18.0 °F - 9.0 °F 68% 30.04 in 10.0 mi Calm Calm - N/A   Partly Cloudy
8:53 AM 21.0 °F - 8.1 °F 57% 30.02 in 10.0 mi Calm Calm - N/A   Clear
9:53 AM 25.0 °F - 10.0 °F 53% 29.98 in 10.0 mi Calm Calm - N/A   Clear
10:53 AM 28.9 °F 25.2 °F 10.0 °F 45% 29.93 in 10.0 mi ENE 3.5 mph - N/A   Partly Cloudy
11:53 AM 33.1 °F 30.0 °F 12.0 °F 42% 29.88 in 10.0 mi WSW 3.5 mph - N/A   Clear
1:53 PM 35.1 °F 29.3 °F 15.1 °F 44% 29.78 in 10.0 mi South 6.9 mph - N/A   Mostly Cloudy
2:53 PM 37.9 °F 32.7 °F 19.0 °F 47% 29.76 in 10.0 mi South 6.9 mph - N/A   Overcast
3:31 PM 37.4 °F 29.8 °F 28.4 °F 70% 29.73 in 10.0 mi South 11.5 mph 31.1 mph 0.00 in Rain Light Rain
3:53 PM 36.0 °F 27.5 °F 30.0 °F 79% 29.76 in 6.0 mi South 12.7 mph 20.7 mph 0.00 in   Overcast
4:13 PM 33.8 °F 29.6 °F 30.2 °F 87% 29.72 in 2.5 mi South 4.6 mph - 0.01 in Snow Light Snow
4:21 PM 33.8 °F 30.8 °F 30.2 °F 87% 29.72 in 1.5 mi South 3.5 mph - 0.01 in Snow Light Snow
4:53 PM 33.1 °F - 30.9 °F 92% 29.74 in 1.5 mi Calm Calm - 0.03 in Snow Light Snow
5:08 PM 32.0 °F - 30.2 °F 93% 29.69 in 2.5 mi Calm Calm - 0.00 in   Overcast
5:15 PM 32.0 °F - 30.2 °F 93% 29.70 in 3.0 mi Calm Calm - 0.00 in   Overcast
5:18 PM 32.0 °F - 30.2 °F 93% 29.69 in 2.5 mi Calm Calm - 0.00 in Snow Light Snow
5:30 PM 32.0 °F - 30.2 °F 93% 29.69 in 1.5 mi Calm Calm - 0.00 in Snow Light Snow
5:53 PM 32.0 °F - 30.9 °F 96% 29.72 in 1.0 mi Calm Calm - 0.01 in Snow Light Snow
6:28 PM 32.0 °F - 30.2 °F 93% 29.68 in 0.8 mi Calm Calm - 0.02 in Snow Light Snow
7:46 PM 32.0 °F - 30.2 °F 93% 29.65 in 0.5 mi Calm Calm - 0.06 in Fog , Snow Snow
7:53 PM 32.0 °F - 30.9 °F 96% 29.68 in 0.5 mi Calm Calm - 0.07 in Fog , Snow Snow
8:24 PM 32.0 °F - 30.2 °F 93% 29.64 in 0.5 mi Calm Calm - 0.02 in Fog , Snow Snow
8:53 PM 32.0 °F - 30.9 °F 96% 29.66 in 0.8 mi Calm Calm - 0.05 in Snow Light Snow
9:27 PM 32.0 °F - 30.2 °F 93% 29.62 in 1.0 mi Calm Calm - 0.02 in Snow Light Snow
9:53 PM 32.0 °F - 30.9 °F 96% 29.65 in 2.0 mi Calm Calm - 0.02 in   Overcast
10:00 PM 32.0 °F - 30.2 °F 93% 29.62 in 2.5 mi Calm Calm - N/A   Overcast
10:26 PM 32.0 °F 27.5 °F 30.2 °F 93% 29.62 in 3.0 mi South 4.6 mph - N/A   Overcast
10:53 PM 32.0 °F 28.7 °F 30.9 °F 96% 29.64 in 3.0 mi SW 3.5 mph - N/A   Overcast
11:06 PM 32.0 °F - 30.2 °F 93% 29.62 in 2.5 mi Calm Calm - N/A   Overcast
11:14 PM 32.0 °F - 30.2 °F 93% 29.62 in 3.0 mi Calm Calm - N/A   Overcast
11:29 PM 32.0 °F - 30.2 °F 93% 29.62 in 3.0 mi Calm Calm - N/A   Overcast
11:53 PM 32.0 °F 26.4 °F 30.0 °F 92% 29.65 in 7.0 mi West 5.8 mph - N/A   Overcast